Wetbulb
63.70 62.89 61.59 60.12 59.52 59.75 60.04 59.52 57.79 57.12 57.42 57.96 57.44 56.65 56.23 55.55 54.90 54.39 53.92 53.37 53.03 52.96 52.88 52.81 52.81 52.94 52.94 53.17 53.17 53.03 52.96 52.95 52.60 51.76 51.00 51.08 51.50 51.43 51.29 51.07 50.79 50.42 50.24 49.96 50.04 50.08 50.02 49.93 49.68 49.23 49.02 48.94 48.79 48.69 48.48 48.42 48.29 48.03 47.76 47.40 47.09 47.05 46.79 46.40 46.24 46.10 46.04 45.88 45.64
63.65 62.73 61.07 58.41 58.04 58.94 59.68 58.88 57.78 57.61 57.89 59.01 58.26 57.54 56.70 56.00 55.19 54.66 54.18 53.70 53.44 53.44 53.43 53.15 53.06 53.07 53.23 53.31 53.09 53.16 53.02 52.88 52.59 51.83 51.28 51.43 51.43 51.36 51.08 50.92 50.57 50.28 49.99 50.00 50.15 50.12 50.00 49.91 49.46 49.00 48.67 48.73 48.69 48.39 48.23 48.41 48.40 48.07 47.63 47.33 47.23 47.09 46.74 46.24 45.99 45.99 45.91 45.66 45.59
63.44 62.73 61.64 60.48 60.19 60.05 59.68 59.02 58.51 58.27 58.55 59.10 58.65 57.97 57.17 56.08 55.41 54.94 54.45 54.11 54.09 53.96 53.83 53.20 53.03 53.13 53.30 53.45 53.30 53.23 53.09 53.01 52.52 51.97 51.49 51.49 51.43 51.15 50.94 50.71 50.56 50.07 49.69 50.12 50.27 50.23 50.00 49.94 49.12 48.26 47.86 48.07 48.26 48.24 48.21 48.31 47.99 47.76 47.45 47.28 47.23 46.98 46.53 45.92 45.83 45.83 45.69 45.35 45.21
63.38 62.67 61.79 60.92 60.71 60.48 59.90 59.46 58.80 58.51 58.51 58.84 58.72 58.09 57.10 56.03 55.49 55.15 54.86 54.66 54.43 54.07 53.86 53.45 53.21 53.18 53.08 53.24 53.37 53.36 53.07 51.96 52.03 51.76 51.42 51.35 51.28 51.07 50.86 50.70 50.55 50.31 50.26 50.42 50.30 50.19 50.08 49.86 49.08 48.33 47.87 48.04 48.15 48.18 48.13 47.99 47.81 47.48 47.31 47.40 47.26 46.88 46.29 45.84 45.84 45.66 45.38 45.14 44.99
63.26 62.54 61.74 60.93 61.13 60.83 60.55 60.27 59.53 58.95 58.66 58.90 58.64 57.82 56.82 55.80 55.46 55.19 54.98 54.36 54.09 54.24 54.24 54.22 53.70 53.32 53.01 53.17 53.22 53.34 52.99 52.16 50.47 50.76 51.41 51.14 51.07 50.99 50.84 50.69 50.47 50.37 50.18 50.33 50.25 50.20 50.03 49.62 48.92 48.39 48.19 48.09 48.16 48.29 48.40 48.33 47.82 47.47 47.22 47.29 46.94 46.67 46.20 45.76 45.70 45.55 45.47 45.17 45.04
62.89 62.32 61.74 61.22 61.27 61.32 60.97 60.85 60.04 59.38 58.88 59.01 58.33 57.29 56.28 55.44 55.31 55.10 54.82 54.45 54.46 54.76 54.56 53.43 52.86 52.38 52.47 53.22 53.20 53.04 52.82 52.54 51.50 51.18 51.27 50.94 50.91 50.76 50.61 50.54 50.53 50.36 50.16 50.05 50.03 50.00 49.82 49.24 48.42 48.18 48.25 48.39 48.49 48.53 48.52 48.40 47.69 47.26 47.07 46.83 46.65 46.52 46.29 45.79 45.66 45.67 45.48 45.06 44.77
62.78 62.29 61.72 61.29 61.22 61.13 60.98 60.77 60.12 59.60 59.17 58.92 58.28 57.12 56.25 55.58 55.38 55.25 55.19 54.89 54.83 54.57 53.73 52.26 52.40 52.33 52.39 52.85 52.82 52.65 52.43 52.09 51.84 51.59 51.26 50.84 50.74 50.40 50.20 50.39 50.43 50.19 50.02 49.82 49.75 49.50 49.17 48.93 48.17 47.71 47.28 47.16 47.75 48.22 48.27 48.06 47.48 46.83 46.58 46.36 46.56 46.47 46.27 46.10 46.13 45.83 45.36 44.88 44.49
62.73 62.25 61.53 61.03 61.06 61.08 60.93 60.78 60.05 59.53 59.24 58.80 58.06 57.27 56.71 56.05 55.82 55.55 55.42 55.20 54.77 54.08 53.24 52.53 53.03 53.02 52.73 52.44 52.36 52.21 52.00 51.67 51.45 51.24 51.17 50.94 50.50 50.24 50.24 50.30 50.14 49.98 49.80 49.68 49.47 49.11 48.76 48.56 48.01 47.77 47.70 47.57 47.39 47.64 47.79 47.88 47.31 46.69 46.24 46.01 46.29 46.53 46.81 46.92 46.86 46.15 45.35 44.66 44.52
62.51 62.16 61.75 61.26 61.06 61.00 61.00 60.85 60.12 59.68 59.17 58.73 57.91 57.35 56.85 56.49 56.06 55.70 55.49 55.00 54.36 53.72 53.16 52.81 52.96 52.81 52.65 52.24 52.04 51.97 51.76 51.29 50.94 50.91 51.05 50.88 50.30 49.98 49.93 49.98 49.76 49.47 49.47 49.64 49.26 48.93 48.58 48.25 47.94 48.01 47.91 47.55 47.15 47.30 47.53 47.74 47.07 46.52 46.17 45.80 46.01 46.30 46.47 46.69 46.56 46.01 45.40 44.75 44.42
62.20 62.09 61.75 61.35 61.30 61.07 61.15 61.22 60.41 59.90 59.38 58.59 58.08 57.43 56.33 54.66 55.27 55.56 55.42 54.64 54.01 53.52 53.31 52.81 52.68 52.39 52.24 52.17 51.97 51.77 51.43 51.22 50.74 50.60 50.50 50.17 49.56 49.37 49.42 49.41 49.18 49.11 49.18 49.30 48.91 48.71 48.45 48.08 48.03 47.99 48.01 47.94 47.50 47.52 47.55 47.49 46.84 46.24 45.67 45.62 45.58 45.69 45.93 46.20 45.91 45.62 45.08 44.65 44.34
62.20 62.15 61.73 61.41 61.45 61.30 61.22 61.51 60.41 59.53 59.02 58.44 57.85 57.28 56.35 54.91 55.54 55.63 55.14 54.29 53.58 53.22 52.81 52.61 52.47 52.19 52.05 51.98 51.84 51.57 51.43 51.08 50.67 50.45 50.04 49.67 49.11 49.10 49.20 49.11 48.92 48.81 48.63 48.65 48.49 48.27 48.08 47.97 47.74 47.65 47.61 47.76 47.65 47.36 47.21 47.14 46.55 45.96 45.54 45.52 45.44 45.32 45.33 45.38 45.33 45.11 44.76 44.39 44.11
62.20 62.05 61.84 61.73 61.87 61.66 61.52 61.22 60.11 59.30 58.65 58.13 57.45 57.11 56.85 56.57 56.28 55.49 54.50 53.70 52.87 52.48 52.18 52.33 52.19 51.98 51.84 51.78 51.71 51.29 51.01 51.08 50.40 49.98 49.56 49.40 49.19 49.10 49.11 48.98 48.78 48.51 48.25 48.27 48.09 47.92 47.61 47.45 47.30 47.19 47.27 47.50 47.50 47.37 47.05 46.87 46.27 45.87 45.53 45.39 45.29 45.05 44.72 44.81 44.85 44.71 44.65 44.45 44.28
62.34 62.09 61.95 61.99 62.06 61.94 61.59 60.77 59.73 58.99 58.49 57.91 57.38 57.03 56.55 56.06 55.78 54.86 53.93 52.96 52.15 51.86 51.77 52.05 52.05 51.98 51.98 51.84 51.71 51.50 51.22 50.74 49.99 49.43 49.12 49.16 49.02 48.85 48.73 48.57 48.22 48.02 47.80 47.93 47.87 47.54 47.19 47.12 47.04 47.09 46.98 47.12 47.19 47.25 47.14 46.72 46.11 45.68 45.28 45.07 44.89 44.85 44.60 44.55 44.62 44.77 44.73 44.59 44.26
62.48 62.40 62.09 62.13 61.89 61.62 61.04 60.17 59.36 58.70 58.12 57.68 57.31 56.66 56.26 55.70 55.00 54.15 53.37 52.63 51.88 51.76 51.64 51.91 51.91 52.12 52.05 52.12 51.91 51.43 50.94 50.38 49.56 49.26 49.02 49.09 48.87 48.59 48.26 48.08 47.73 47.43 47.36 47.54 47.53 47.26 46.94 46.76 46.97 47.09 46.87 46.84 46.88 47.14 47.16 46.93 46.30 45.64 45.20 44.92 44.81 44.81 44.83 44.87 44.94 44.89 44.79 44.46 44.01
62.65 62.48 62.26 61.99 61.59 61.08 60.58 59.72 58.91 58.26 57.91 57.54 57.10 56.53 55.76 55.06 54.08 53.30 52.86 52.37 52.04 51.91 52.05 51.91 51.98 51.98 52.12 52.12 51.71 51.02 50.51 49.80 49.35 48.99 48.90 48.63 48.28 48.01 47.75 47.62 47.34 47.09 47.00 47.14 47.32 47.17 47.00 46.98 47.04 47.02 46.80 46.60 46.51 46.72 46.83 46.77 46.31 45.88 45.40 45.15 45.12 45.13 45.18 45.17 45.07 44.94 44.63 44.28 43.90
62.58 62.41 62.12 61.45 61.15 60.65 59.99 59.20 58.39 57.97 57.54 57.25 56.74 55.90 55.06 54.43 53.59 52.87 52.36 52.30 52.25 52.19 52.12 52.12 52.12 52.33 51.98 51.20 50.76 50.13 49.49 48.94 48.78 48.67 48.41 47.95 47.58 47.29 47.20 47.13 46.98 46.94 47.08 47.28 47.35 47.37 47.58 47.66 47.62 47.21 46.81 46.62 46.39 46.46 46.37 46.42 46.35 46.09 45.84 45.65 45.56 45.38 45.23 44.95 44.80 44.67 44.36 44.11 43.55
62.51 62.12 61.50 60.78 60.48 60.15 59.42 58.70 57.97 57.47 57.04 56.60 55.68 54.92 54.29 53.87 53.08 52.28 51.71 51.96 52.32 52.33 52.12 52.19 51.98 51.63 50.97 49.90 49.43 48.87 48.49 48.50 48.42 48.18 47.84 47.30 46.93 46.70 46.60 46.56 46.70 47.00 47.33 47.60 47.48 47.57 47.70 48.04 47.79 47.47 46.96 46.67 46.47 46.40 46.26 46.22 46.39 46.21 46.01 45.93 45.69 45.54 45.09 44.43 44.34 44.27 44.04 43.75 43.32
62.29 61.69 60.86 60.08 59.84 59.27 58.71 57.85 57.13 56.48 55.91 55.41 54.57 54.36 54.08 53.64 52.78 52.27 51.78 51.80 52.21 52.24 52.11 51.90 51.27 50.47 49.68 48.96 48.51 48.32 48.00 48.28 47.91 47.51 47.17 46.71 46.41 46.35 46.42 46.59 47.07 47.43 47.79 47.72 47.52 47.52 47.50 47.53 47.47 47.20 47.00 46.84 46.58 46.43 46.25 46.13 46.09 46.06 46.15 46.03 45.80 45.54 45.17 44.71 44.49 44.34 44.05 43.82 43.31
61.63 60.98 59.95 59.24 58.91 58.36 57.35 56.42 55.99 55.49 55.14 54.78 54.42 54.63 54.49 53.43 52.84 52.41 52.13 52.06 51.88 52.09 51.98 51.11 50.17 49.29 48.61 48.19 48.36 47.93 47.59 47.72 47.23 46.97 46.64 46.55 46.45 46.50 46.79 47.12 47.59 47.79 47.79 47.57 47.44 47.37 47.29 47.33 47.26 47.15 46.91 46.51 46.36 46.24 46.07 46.02 46.01 46.03 46.10 45.96 45.69 45.56 45.25 45.03 44.73 44.49 44.20 43.98 43.56
60.99 59.87 59.03 58.33 58.14 57.43 56.64 55.70 55.46 55.15 55.19 55.20 54.84 54.61 54.28 53.50 52.91 52.19 51.76 51.77 51.84 51.93 51.69 50.22 49.18 48.59 48.23 48.28 48.28 47.94 47.47 47.30 47.05 46.61 46.34 46.49 46.67 47.03 47.30 47.83 48.00 47.93 47.64 47.34 47.20 47.12 46.98 46.87 47.04 46.79 46.50 46.19 46.07 45.94 45.85 45.92 45.94 45.93 45.95 45.81 45.61 45.47 45.17 44.86 44.66 44.44 44.34 44.10 43.83
60.05 59.18 58.40 57.78 57.50 57.14 56.55 56.07 55.55 55.18 55.02 55.15 54.70 54.26 53.85 53.57 52.84 52.20 51.83 51.74 51.73 51.39 50.77 49.72 48.93 48.24 47.82 47.86 47.64 47.50 47.09 46.59 46.70 46.54 46.53 46.88 47.19 47.61 48.01 48.10 48.07 47.73 47.29 47.10 46.98 46.77 46.56 46.51 46.42 46.31 46.19 45.99 45.85 45.69 45.70 45.62 45.55 45.57 45.66 45.55 45.49 45.35 45.00 44.78 44.56 44.44 44.37 44.22 43.78
59.13 58.57 58.08 57.28 57.19 56.56 55.89 55.11 54.78 54.39 54.31 54.40 54.26 54.11 53.98 53.41 52.69 52.18 51.85 51.79 51.14 50.74 50.30 49.57 49.07 48.29 47.66 47.48 47.21 46.83 46.47 46.15 46.49 46.69 47.03 47.50 47.92 47.99 48.09 47.95 47.69 47.34 46.91 46.63 46.53 46.46 46.29 46.24 46.21 46.24 46.06 45.78 45.61 45.49 45.26 45.07 45.18 45.17 45.19 45.17 45.12 44.95 44.63 44.56 44.58 44.51 44.34 44.15 43.54
58.08 57.38 56.85 56.32 55.79 54.46 53.60 53.98 54.24 54.14 54.06 54.20 54.57 54.57 54.27 53.34 52.51 52.05 51.50 50.99 49.91 49.76 49.82 49.72 49.21 48.48 47.79 47.14 46.74 46.22 45.90 45.79 46.31 46.83 47.41 48.08 48.21 48.12 47.88 47.72 47.29 46.80 46.46 46.30 46.36 46.27 46.12 46.02 45.84 45.84 45.69 45.50 45.26 45.02 44.89 45.03 44.81 44.72 44.73 44.51 44.34 44.16 44.00 44.17 44.30 44.31 44.19 43.83 43.18
55.69 55.10 54.65 54.35 54.36 54.07 53.79 53.99 54.24 54.43 54.61 54.97 55.28 54.91 54.04 52.98 52.35 51.73 50.91 50.08 49.18 49.22 49.50 49.47 48.75 48.18 47.66 46.87 46.27 45.71 45.40 45.48 46.01 46.78 47.53 48.10 47.88 47.68 47.34 47.07 46.60 46.24 46.31 47.01 46.49 46.00 45.37 44.97 45.41 45.41 45.08 45.00 44.88 44.88 44.94 45.37 45.04 44.64 44.45 44.07 43.86 43.61 43.53 43.76 44.04 44.01 43.80 43.47 42.96
53.99 53.50 53.37 53.45 54.02 54.28 54.44 54.64 54.77 54.90 55.16 55.48 55.46 54.50 52.99 51.83 51.71 51.09 50.42 49.32 49.00 48.85 48.85 48.26 47.72 47.59 47.21 46.46 45.91 45.67 45.61 45.78 46.24 46.77 47.18 47.30 47.06 46.85 46.63 46.35 46.06 46.21 46.39 45.66 42.68 41.19 41.00 41.78 43.61 44.51 44.71 44.77 44.85 45.02 45.23 45.23 45.15 44.88 44.57 44.11 43.69 43.31 43.25 43.39 43.60 43.65 43.39 43.04 42.51
53.75 53.07 53.00 53.25 53.66 54.08 54.29 54.60 54.97 55.06 55.16 54.91 54.21 52.78 51.45 51.12 51.02 50.39 49.46 48.63 48.22 48.02 47.72 47.26 46.92 46.39 45.80 45.76 45.75 45.88 46.11 46.62 46.97 46.97 46.73 46.35 46.10 46.10 45.97 45.70 46.04 46.47 46.00 43.78 40.34 38.73 38.70 39.39 40.27 41.41 42.90 44.93 44.73 44.66 44.79 44.88 44.99 44.90 44.67 44.19 43.83 43.47 43.22 43.11 43.19 43.16 43.01 42.65 42.22
53.39 53.08 53.35 53.64 53.98 54.21 54.38 54.68 54.80 54.52 54.00 53.43 52.35 51.30 50.62 50.63 50.14 49.46 48.70 48.06 47.69 47.43 46.99 46.48 46.14 45.23 44.79 45.52 45.81 46.06 46.51 47.14 47.38 47.14 46.54 45.84 45.43 45.39 45.39 45.29 45.87 46.30 45.37 42.10 39.16 38.17 38.15 38.56 38.73 39.29 41.00 44.12 44.14 44.06 43.96 44.14 44.56 44.77 44.58 44.27 43.96 43.68 43.40 43.18 42.98 42.80 42.67 42.38 42.01
53.24 53.07 53.49 53.94 54.22 54.60 54.73 54.72 54.00 53.36 52.63 51.88 50.99 50.67 50.45 49.97 48.96 48.24 47.77 47.29 47.19 46.98 46.54 45.94 45.72 45.41 45.42 45.69 46.02 46.37 46.77 47.14 47.08 46.68 46.18 45.52 45.18 44.95 44.93 44.85 45.54 45.66 44.12 40.47 38.73 38.04 38.15 38.42 38.61 38.60 39.30 41.13 43.36 43.81 43.69 43.76 43.90 44.03 44.20 44.11 43.93 43.64 43.52 43.16 42.98 42.78 42.54 42.34 41.93
53.43 53.26 53.71 54.21 54.47 54.63 54.45 53.70 52.61 52.05 51.72 51.15 50.46 50.06 49.55 48.82 47.86 47.52 47.19 46.88 46.61 46.44 46.01 45.38 45.32 45.48 45.70 45.70 46.26 46.61 46.86 46.71 46.55 46.17 45.72 45.26 45.02 44.88 44.81 44.78 44.88 43.99 41.82 38.72 38.41 38.35 38.30 38.31 38.19 38.01 38.00 39.13 41.65 42.66 42.95 42.90 43.01 43.08 43.30 43.47 43.48 43.40 43.32 43.11 42.93 42.80 42.50 42.29 41.88
54.04 54.09 54.28 54.70 54.43 53.99 53.19 52.01 51.00 50.79 50.79 50.64 49.99 49.44 48.71 47.50 46.83 46.62 46.42 46.17 46.13 45.87 45.57 45.42 45.40 45.31 45.65 46.02 46.40 46.48 46.30 46.08 46.03 45.63 45.24 44.75 44.51 44.41 44.42 44.07 44.71 44.17 41.94 38.00 38.30 38.47 38.44 38.36 38.02 37.50 37.25 37.36 40.09 41.82 42.65 42.37 42.55 42.57 42.64 42.86 43.10 43.18 43.25 43.05 43.03 42.80 42.41 42.05 41.64
54.31 54.30 54.27 54.12 53.41 52.61 51.84 51.14 50.49 50.17 50.11 49.96 49.28 48.73 48.03 46.97 46.53 46.24 46.11 45.72 45.62 45.12 44.90 45.46 45.55 45.61 45.92 46.56 46.69 46.46 46.03 45.71 45.43 45.20 44.89 44.53 43.67 43.77 44.19 44.48 44.78 44.06 41.90 37.98 38.29 38.41 38.47 38.31 37.88 37.41 36.76 36.11 38.73 41.01 42.40 42.32 42.30 42.26 42.25 42.46 42.68 42.91 43.04 43.01 42.88 42.67 42.42 42.02 41.42
54.28 53.82 53.43 52.90 52.16 51.57 51.21 50.92 50.40 50.21 49.92 49.50 48.68 47.98 47.36 46.74 46.58 46.38 46.20 45.47 45.25 45.17 45.27 45.66 45.62 45.80 46.01 46.44 46.44 46.24 45.84 45.24 44.89 44.57 44.43 44.28 44.19 44.28 44.35 44.42 44.75 43.96 41.86 38.10 38.09 38.21 38.18 38.07 37.63 37.13 36.51 35.55 37.52 40.29 42.32 42.30 42.23 42.15 42.22 42.39 42.54 42.69 42.87 42.87 42.83 42.66 42.44 42.03 41.35
53.58 53.22 52.64 51.93 51.60 51.43 51.27 51.10 50.54 50.30 49.89 49.11 48.27 47.53 47.07 46.70 46.56 46.40 46.10 45.59 45.52 45.60 45.87 45.84 46.03 45.94 45.92 46.17 46.02 45.69 45.32 44.72 44.21 43.76 43.47 43.68 44.04 44.18 44.29 44.22 44.82 43.79 41.50 38.09 37.90 37.74 37.63 37.59 37.26 36.87 36.13 35.04 37.32 39.89 41.79 42.14 42.14 42.09 42.24 42.32 42.53 42.72 42.96 42.96 42.75 42.58 42.29 42.00 41.51
53.02 52.53 52.10 51.46 51.29 51.19 51.16 50.88 50.36 49.99 49.59 48.69 48.18 47.64 47.22 46.94 46.32 46.05 45.80 45.66 45.92 46.21 46.44 46.62 46.52 46.47 46.29 46.14 45.72 45.17 44.51 43.75 44.15 44.23 44.28 44.19 44.37 44.33 44.33 44.58 45.00 43.71 41.09 37.83 37.50 37.33 37.21 37.14 36.84 36.50 35.88 34.87 37.37 39.66 41.18 41.70 41.77 41.91 41.93 42.16 42.38 42.51 42.75 42.79 42.79 42.65 42.53 42.15 41.65
52.67 52.25 51.82 51.40 51.24 51.08 50.72 50.37 49.91 49.40 48.80 48.11 47.74 47.56 47.36 47.17 46.53 46.19 45.90 45.69 45.89 46.61 47.04 47.12 46.92 46.69 46.29 46.04 45.62 45.03 44.37 43.87 44.46 44.57 44.55 44.58 44.65 44.40 44.33 44.66 45.20 43.09 39.83 37.65 37.23 37.05 36.89 36.85 36.52 36.24 35.83 35.30 37.83 39.74 40.87 41.27 41.40 41.55 41.70 41.95 42.03 42.30 42.44 42.66 42.58 42.58 42.52 42.47 41.92
52.54 52.11 51.75 51.32 51.04 50.68 50.26 49.75 49.18 48.65 48.25 47.72 47.70 47.45 47.36 47.38 47.14 46.81 46.41 45.66 46.14 46.54 46.82 46.82 46.69 46.39 45.94 45.45 45.19 44.64 44.35 44.72 44.68 44.72 44.81 44.71 44.68 44.77 44.68 44.88 45.31 43.02 39.17 37.36 37.05 36.83 36.79 36.54 36.28 35.87 35.88 36.81 38.98 40.14 40.85 41.00 41.05 41.25 41.45 41.55 41.61 41.86 42.20 42.37 42.48 42.57 42.72 42.49 42.19
52.33 51.97 51.53 51.22 50.75 50.26 49.80 49.33 48.78 48.23 47.82 47.77 47.70 47.70 47.58 47.57 47.50 47.47 47.04 46.20 46.63 46.56 46.39 46.37 46.17 45.79 45.37 45.08 44.95 44.87 44.94 45.49 45.34 45.33 45.06 44.72 44.67 44.74 44.77 44.86 45.48 43.73 40.56 37.49 36.89 36.73 36.57 36.57 36.12 35.83 36.27 37.97 39.74 40.40 40.81 40.87 40.90 41.11 41.13 41.15 41.29 41.53 41.82 42.09 42.33 42.46 42.52 42.46 41.90
51.98 51.63 51.38 50.98 50.43 49.98 49.57 49.16 48.69 48.13 47.93 48.00 47.98 48.04 47.97 47.94 47.84 47.68 46.90 45.83 46.61 46.53 46.18 46.04 45.82 45.67 45.52 45.52 45.57 45.73 45.92 46.08 45.65 45.41 45.15 44.81 44.74 44.69 44.68 44.80 45.18 44.65 42.53 38.18 36.89 36.51 36.56 36.64 36.07 35.96 36.59 38.80 40.14 40.67 40.81 40.85 40.82 40.81 40.75 40.81 40.90 41.30 41.59 41.68 41.90 42.00 42.08 41.95 40.33
51.43 51.34 51.02 50.61 50.12 49.57 49.22 48.84 48.59 48.41 48.41 48.28 48.26 48.27 48.23 48.22 48.06 47.57 46.88 46.07 46.76 46.76 46.36 46.04 45.88 45.98 46.02 45.71 45.88 45.95 46.01 46.14 45.65 45.17 44.91 45.05 44.69 44.04 43.82 44.49 44.86 44.57 42.95 38.76 36.89 36.39 36.51 36.64 36.24 35.97 36.45 38.37 40.37 40.99 41.05 40.82 40.67 40.51 40.55 40.49 40.56 40.80 41.13 41.43 41.55 41.69 41.75 41.69 39.77
50.93 51.01 50.73 50.42 49.75 49.35 48.91 48.53 48.65 48.69 48.77 48.58 48.40 48.32 48.26 48.19 47.64 47.12 46.83 46.60 47.10 47.10 46.74 46.58 46.53 46.66 46.33 45.02 45.31 45.40 45.37 45.56 45.70 45.26 44.89 44.74 44.29 43.15 42.62 44.04 44.71 44.43 42.88 39.21 36.93 36.32 36.51 36.64 36.42 36.04 36.38 38.32 40.53 41.24 41.23 40.86 40.48 40.21 40.09 40.16 40.27 40.30 40.55 40.95 41.34 41.39 41.52 41.51 40.37
50.61 50.41 50.01 49.60 49.38 49.09 48.81 48.60 48.65 48.95 49.06 48.99 48.65 48.25 47.93 47.55 47.17 47.03 47.12 47.08 47.26 47.35 47.21 47.13 47.11 46.94 46.21 44.50 44.74 44.77 44.77 44.63 44.92 45.15 44.88 44.04 43.79 43.14 42.83 44.21 44.65 44.74 43.94 41.74 38.64 36.94 36.47 36.66 36.64 36.31 36.49 38.06 40.36 41.29 41.31 40.99 40.29 39.82 39.66 39.89 39.99 39.99 40.02 40.43 40.78 40.98 40.96 41.06 41.00
MSLP
1014.85 1015.13 1015.45 1015.81 1016.05 1016.21 1016.37 1016.49 1016.69 1016.89 1017.09 1017.29 1017.45 1017.65 1017.85 1018.13 1018.41 1018.73 1019.01 1019.29 1019.53 1019.69 1019.85 1020.09 1020.29 1020.41 1020.61 1020.85 1021.01 1021.21 1021.41 1021.57 1021.77 1021.97 1022.17 1022.33 1022.49 1022.65 1022.85 1023.01 1023.21 1023.41 1023.57 1023.69 1023.85 1023.93 1023.97 1024.01 1024.05 1024.13 1024.17 1024.29 1024.29 1024.41 1024.53 1024.65 1024.65 1024.65 1024.65 1024.65 1024.65 1024.73 1024.73 1024.81 1024.81 1024.85 1024.93 1025.01 1025.05
1014.69 1015.01 1015.33 1015.65 1015.93 1016.13 1016.29 1016.49 1016.73 1016.93 1017.13 1017.29 1017.33 1017.49 1017.69 1018.01 1018.25 1018.57 1018.85 1019.13 1019.33 1019.49 1019.69 1019.89 1020.13 1020.29 1020.53 1020.77 1021.01 1021.17 1021.37 1021.57 1021.73 1021.97 1022.13 1022.29 1022.45 1022.65 1022.85 1023.01 1023.17 1023.33 1023.49 1023.61 1023.69 1023.81 1023.85 1023.89 1023.93 1024.01 1024.13 1024.21 1024.29 1024.41 1024.53 1024.69 1024.73 1024.65 1024.61 1024.61 1024.65 1024.73 1024.73 1024.77 1024.81 1024.85 1024.93 1025.01 1025.05
1014.53 1014.85 1015.21 1015.53 1015.77 1015.97 1016.17 1016.41 1016.65 1016.85 1017.01 1017.13 1017.21 1017.29 1017.53 1017.85 1018.13 1018.41 1018.65 1018.93 1019.17 1019.37 1019.57 1019.81 1020.01 1020.25 1020.45 1020.73 1020.97 1021.17 1021.37 1021.57 1021.77 1021.97 1022.13 1022.29 1022.41 1022.57 1022.77 1022.97 1023.13 1023.29 1023.41 1023.57 1023.65 1023.73 1023.81 1023.85 1023.93 1024.01 1024.09 1024.17 1024.25 1024.29 1024.45 1024.57 1024.69 1024.65 1024.57 1024.57 1024.61 1024.65 1024.73 1024.73 1024.77 1024.85 1024.89 1025.01 1025.05
1014.41 1014.73 1015.05 1015.37 1015.57 1015.81 1016.01 1016.21 1016.45 1016.65 1016.77 1016.85 1016.97 1017.13 1017.41 1017.77 1018.01 1018.29 1018.57 1018.81 1019.05 1019.25 1019.41 1019.65 1019.89 1020.13 1020.41 1020.69 1020.93 1021.13 1021.33 1021.57 1021.73 1021.89 1022.09 1022.25 1022.41 1022.57 1022.73 1022.89 1023.01 1023.17 1023.37 1023.53 1023.61 1023.69 1023.77 1023.85 1023.97 1024.01 1024.09 1024.13 1024.13 1024.17 1024.29 1024.41 1024.53 1024.57 1024.57 1024.57 1024.57 1024.57 1024.61 1024.69 1024.73 1024.81 1024.89 1025.01 1025.09
1014.29 1014.57 1014.85 1015.17 1015.41 1015.65 1015.85 1016.01 1016.25 1016.41 1016.57 1016.69 1016.81 1017.01 1017.33 1017.69 1017.93 1018.17 1018.45 1018.73 1018.93 1019.13 1019.29 1019.53 1019.73 1020.01 1020.33 1020.61 1020.85 1021.05 1021.29 1021.49 1021.69 1021.85 1022.01 1022.17 1022.33 1022.53 1022.73 1022.85 1023.01 1023.13 1023.33 1023.49 1023.61 1023.69 1023.77 1023.85 1023.97 1024.05 1024.09 1024.09 1024.09 1024.09 1024.13 1024.25 1024.37 1024.41 1024.45 1024.53 1024.57 1024.57 1024.61 1024.69 1024.73 1024.85 1024.93 1025.01 1025.13
1014.17 1014.45 1014.73 1015.01 1015.29 1015.53 1015.73 1015.89 1016.09 1016.29 1016.41 1016.57 1016.73 1017.01 1017.29 1017.57 1017.85 1018.09 1018.29 1018.57 1018.73 1019.01 1019.21 1019.41 1019.65 1019.93 1020.25 1020.53 1020.73 1021.01 1021.21 1021.41 1021.61 1021.77 1021.93 1022.09 1022.29 1022.45 1022.69 1022.85 1022.97 1023.13 1023.29 1023.41 1023.57 1023.69 1023.81 1023.89 1023.93 1024.01 1024.01 1024.01 1024.01 1024.01 1024.09 1024.17 1024.25 1024.33 1024.41 1024.45 1024.53 1024.57 1024.65 1024.69 1024.73 1024.81 1024.93 1025.01 1025.09
1014.01 1014.33 1014.61 1014.89 1015.17 1015.41 1015.57 1015.77 1015.93 1016.13 1016.29 1016.45 1016.69 1016.93 1017.17 1017.45 1017.69 1017.93 1018.13 1018.37 1018.61 1018.89 1019.13 1019.37 1019.57 1019.85 1020.13 1020.41 1020.65 1020.85 1021.09 1021.29 1021.49 1021.69 1021.85 1022.01 1022.21 1022.41 1022.61 1022.81 1022.93 1023.09 1023.21 1023.41 1023.53 1023.69 1023.81 1023.89 1023.89 1023.89 1023.93 1024.01 1024.01 1024.01 1024.09 1024.17 1024.21 1024.29 1024.33 1024.37 1024.41 1024.53 1024.57 1024.69 1024.73 1024.85 1024.89 1024.97 1025.01
1013.89 1014.13 1014.41 1014.73 1015.01 1015.29 1015.45 1015.61 1015.81 1016.01 1016.21 1016.29 1016.57 1016.85 1017.09 1017.33 1017.57 1017.77 1018.01 1018.25 1018.49 1018.77 1019.05 1019.25 1019.45 1019.69 1020.01 1020.25 1020.45 1020.69 1020.89 1021.09 1021.33 1021.57 1021.73 1021.97 1022.17 1022.37 1022.53 1022.73 1022.85 1023.01 1023.17 1023.37 1023.45 1023.61 1023.73 1023.85 1023.85 1023.81 1023.85 1023.89 1023.93 1024.01 1024.05 1024.13 1024.21 1024.29 1024.29 1024.29 1024.29 1024.41 1024.53 1024.69 1024.81 1024.85 1024.89 1024.97 1025.01
1013.81 1014.01 1014.29 1014.57 1014.85 1015.09 1015.29 1015.49 1015.65 1015.85 1016.05 1016.17 1016.41 1016.73 1017.01 1017.25 1017.45 1017.69 1017.93 1018.13 1018.41 1018.65 1018.93 1019.13 1019.41 1019.65 1019.89 1020.13 1020.29 1020.53 1020.73 1020.93 1021.17 1021.41 1021.69 1021.85 1022.09 1022.29 1022.41 1022.61 1022.81 1022.97 1023.13 1023.33 1023.45 1023.57 1023.69 1023.77 1023.77 1023.73 1023.73 1023.81 1023.85 1023.93 1024.05 1024.13 1024.21 1024.29 1024.29 1024.29 1024.29 1024.29 1024.41 1024.57 1024.73 1024.81 1024.85 1024.89 1024.97
1013.65 1013.85 1014.13 1014.45 1014.73 1015.01 1015.17 1015.33 1015.53 1015.69 1015.89 1016.09 1016.33 1016.65 1016.93 1017.21 1017.41 1017.65 1017.85 1018.05 1018.33 1018.61 1018.85 1019.05 1019.29 1019.57 1019.85 1020.01 1020.21 1020.41 1020.65 1020.85 1021.09 1021.33 1021.57 1021.77 1022.01 1022.17 1022.37 1022.57 1022.73 1022.93 1023.09 1023.29 1023.41 1023.57 1023.61 1023.69 1023.69 1023.65 1023.69 1023.73 1023.77 1023.85 1023.93 1024.05 1024.13 1024.21 1024.29 1024.29 1024.25 1024.21 1024.29 1024.37 1024.49 1024.61 1024.69 1024.77 1024.85
1013.49 1013.69 1014.01 1014.29 1014.57 1014.85 1015.01 1015.21 1015.41 1015.57 1015.81 1016.01 1016.29 1016.57 1016.89 1017.13 1017.37 1017.61 1017.85 1018.05 1018.33 1018.61 1018.85 1019.01 1019.29 1019.53 1019.73 1019.97 1020.17 1020.41 1020.57 1020.85 1021.05 1021.29 1021.49 1021.69 1021.93 1022.13 1022.33 1022.57 1022.73 1022.89 1023.05 1023.25 1023.41 1023.49 1023.57 1023.57 1023.57 1023.61 1023.61 1023.65 1023.69 1023.69 1023.77 1023.85 1024.01 1024.09 1024.17 1024.21 1024.21 1024.13 1024.13 1024.17 1024.29 1024.41 1024.45 1024.53 1024.61
1013.29 1013.53 1013.77 1014.05 1014.33 1014.57 1014.81 1015.01 1015.21 1015.45 1015.69 1015.93 1016.17 1016.49 1016.81 1017.09 1017.33 1017.57 1017.85 1018.13 1018.41 1018.69 1018.85 1019.05 1019.29 1019.49 1019.69 1019.89 1020.13 1020.33 1020.57 1020.77 1021.01 1021.25 1021.45 1021.69 1021.89 1022.13 1022.29 1022.53 1022.73 1022.85 1023.01 1023.17 1023.33 1023.41 1023.45 1023.49 1023.53 1023.53 1023.49 1023.49 1023.53 1023.57 1023.57 1023.69 1023.81 1023.89 1024.01 1024.05 1024.09 1024.05 1024.05 1024.09 1024.13 1024.21 1024.29 1024.37 1024.45
1013.13 1013.37 1013.57 1013.85 1014.09 1014.33 1014.57 1014.81 1015.05 1015.33 1015.57 1015.85 1016.05 1016.37 1016.69 1017.01 1017.25 1017.53 1017.85 1018.13 1018.45 1018.69 1018.89 1019.13 1019.29 1019.45 1019.65 1019.81 1020.01 1020.21 1020.41 1020.69 1020.97 1021.21 1021.41 1021.65 1021.85 1022.09 1022.29 1022.49 1022.69 1022.85 1022.97 1023.05 1023.21 1023.33 1023.41 1023.41 1023.41 1023.33 1023.29 1023.29 1023.29 1023.41 1023.49 1023.57 1023.69 1023.77 1023.85 1023.85 1023.93 1023.97 1023.97 1024.01 1024.01 1024.09 1024.17 1024.29 1024.41
1013.01 1013.21 1013.41 1013.61 1013.89 1014.13 1014.41 1014.69 1014.97 1015.25 1015.49 1015.73 1016.01 1016.29 1016.61 1016.93 1017.21 1017.49 1017.81 1018.13 1018.41 1018.61 1018.81 1019.05 1019.25 1019.41 1019.53 1019.65 1019.85 1020.13 1020.33 1020.61 1020.89 1021.13 1021.37 1021.57 1021.85 1022.09 1022.29 1022.41 1022.61 1022.77 1022.89 1023.01 1023.13 1023.25 1023.29 1023.33 1023.29 1023.17 1023.13 1023.13 1023.17 1023.25 1023.37 1023.49 1023.57 1023.65 1023.69 1023.73 1023.81 1023.85 1023.85 1023.89 1023.93 1024.05 1024.17 1024.29 1024.37
1012.85 1013.01 1013.21 1013.45 1013.77 1014.01 1014.29 1014.57 1014.89 1015.17 1015.41 1015.69 1015.93 1016.25 1016.57 1016.89 1017.17 1017.49 1017.77 1018.05 1018.29 1018.53 1018.73 1018.89 1019.09 1019.25 1019.41 1019.57 1019.73 1020.01 1020.29 1020.57 1020.85 1021.05 1021.29 1021.53 1021.77 1022.01 1022.17 1022.37 1022.53 1022.69 1022.81 1022.93 1023.05 1023.13 1023.21 1023.17 1023.13 1023.05 1023.01 1023.01 1023.05 1023.13 1023.21 1023.33 1023.45 1023.57 1023.65 1023.69 1023.69 1023.73 1023.81 1023.85 1023.89 1024.01 1024.13 1024.21 1024.29
1012.77 1012.89 1013.09 1013.37 1013.69 1013.97 1014.21 1014.57 1014.85 1015.13 1015.37 1015.61 1015.89 1016.25 1016.57 1016.85 1017.17 1017.45 1017.73 1018.01 1018.17 1018.41 1018.57 1018.77 1018.93 1019.09 1019.33 1019.57 1019.81 1020.05 1020.29 1020.57 1020.81 1021.01 1021.17 1021.41 1021.69 1021.89 1022.09 1022.29 1022.41 1022.57 1022.69 1022.77 1022.89 1023.01 1023.05 1023.09 1023.05 1023.01 1023.01 1023.01 1023.01 1023.01 1023.05 1023.17 1023.29 1023.45 1023.57 1023.65 1023.69 1023.69 1023.73 1023.81 1023.85 1023.89 1024.01 1024.05 1024.13
1012.65 1012.85 1013.05 1013.33 1013.69 1013.97 1014.21 1014.57 1014.81 1015.09 1015.37 1015.61 1015.93 1016.29 1016.57 1016.85 1017.13 1017.41 1017.65 1017.85 1018.01 1018.25 1018.41 1018.65 1018.85 1019.05 1019.33 1019.65 1019.93 1020.17 1020.37 1020.57 1020.73 1020.93 1021.13 1021.37 1021.61 1021.85 1022.05 1022.21 1022.41 1022.53 1022.61 1022.61 1022.69 1022.73 1022.81 1022.89 1022.97 1023.01 1023.01 1023.01 1023.01 1023.01 1023.05 1023.09 1023.21 1023.33 1023.41 1023.53 1023.57 1023.65 1023.65 1023.69 1023.69 1023.73 1023.81 1023.85 1023.89
1012.57 1012.77 1013.09 1013.41 1013.69 1014.01 1014.29 1014.65 1014.89 1015.17 1015.45 1015.73 1016.05 1016.33 1016.57 1016.81 1017.05 1017.29 1017.53 1017.69 1017.85 1018.09 1018.29 1018.57 1018.85 1019.13 1019.41 1019.77 1020.01 1020.21 1020.37 1020.53 1020.73 1020.93 1021.13 1021.37 1021.57 1021.81 1022.01 1022.17 1022.41 1022.49 1022.53 1022.49 1022.49 1022.49 1022.57 1022.65 1022.77 1022.85 1022.97 1023.05 1023.05 1023.09 1023.13 1023.13 1023.17 1023.21 1023.29 1023.41 1023.45 1023.49 1023.53 1023.57 1023.57 1023.61 1023.65 1023.69 1023.69
1012.53 1012.85 1013.17 1013.49 1013.81 1014.13 1014.45 1014.77 1015.09 1015.37 1015.61 1015.93 1016.21 1016.41 1016.57 1016.81 1017.01 1017.17 1017.41 1017.57 1017.73 1017.93 1018.21 1018.57 1018.89 1019.25 1019.57 1019.81 1020.01 1020.17 1020.33 1020.53 1020.73 1020.97 1021.17 1021.37 1021.57 1021.77 1021.97 1022.13 1022.25 1022.29 1022.29 1022.29 1022.29 1022.33 1022.41 1022.49 1022.65 1022.77 1022.85 1022.97 1023.01 1023.05 1023.13 1023.13 1023.17 1023.17 1023.21 1023.25 1023.29 1023.33 1023.41 1023.41 1023.45 1023.49 1023.53 1023.53 1023.57
1012.57 1012.89 1013.29 1013.61 1013.93 1014.29 1014.61 1014.93 1015.25 1015.53 1015.81 1016.05 1016.33 1016.57 1016.69 1016.81 1016.93 1017.13 1017.29 1017.45 1017.69 1017.85 1018.13 1018.49 1018.85 1019.25 1019.53 1019.69 1019.89 1020.09 1020.29 1020.57 1020.81 1021.01 1021.21 1021.41 1021.57 1021.69 1021.85 1021.93 1022.01 1022.01 1022.05 1022.13 1022.17 1022.21 1022.29 1022.41 1022.53 1022.69 1022.77 1022.85 1022.93 1023.01 1023.05 1023.13 1023.13 1023.13 1023.13 1023.13 1023.17 1023.21 1023.29 1023.29 1023.33 1023.33 1023.37 1023.41 1023.49
1012.65 1013.01 1013.41 1013.73 1014.01 1014.33 1014.69 1015.01 1015.37 1015.65 1015.93 1016.17 1016.41 1016.61 1016.73 1016.81 1016.93 1017.13 1017.25 1017.41 1017.69 1017.89 1018.13 1018.41 1018.77 1019.09 1019.33 1019.57 1019.77 1020.01 1020.33 1020.69 1020.85 1021.05 1021.25 1021.41 1021.53 1021.65 1021.69 1021.73 1021.73 1021.81 1021.85 1021.93 1022.05 1022.13 1022.21 1022.33 1022.45 1022.57 1022.69 1022.77 1022.85 1022.93 1023.01 1023.05 1023.05 1023.01 1023.01 1023.01 1023.09 1023.09 1023.13 1023.13 1023.13 1023.17 1023.21 1023.29 1023.41
1012.81 1013.13 1013.45 1013.81 1014.13 1014.45 1014.85 1015.17 1015.53 1015.85 1016.09 1016.29 1016.53 1016.61 1016.69 1016.81 1017.01 1017.17 1017.37 1017.57 1017.77 1018.01 1018.17 1018.45 1018.73 1019.01 1019.25 1019.49 1019.77 1020.05 1020.41 1020.73 1020.85 1021.05 1021.21 1021.33 1021.41 1021.49 1021.57 1021.61 1021.65 1021.69 1021.77 1021.85 1021.97 1022.09 1022.21 1022.33 1022.45 1022.57 1022.65 1022.73 1022.81 1022.85 1022.89 1022.93 1022.89 1022.85 1022.85 1022.85 1022.93 1022.93 1022.93 1022.97 1023.01 1023.01 1023.01 1023.13 1023.29
1013.09 1013.41 1013.81 1014.17 1014.49 1014.85 1015.17 1015.57 1015.89 1016.21 1016.53 1016.73 1016.77 1016.73 1016.73 1016.85 1017.05 1017.29 1017.53 1017.73 1017.93 1018.13 1018.29 1018.53 1018.73 1019.01 1019.33 1019.61 1019.89 1020.17 1020.45 1020.69 1020.85 1021.01 1021.13 1021.25 1021.29 1021.37 1021.41 1021.53 1021.57 1021.65 1021.73 1021.85 1021.93 1022.05 1022.21 1022.37 1022.49 1022.57 1022.61 1022.69 1022.73 1022.73 1022.77 1022.77 1022.77 1022.73 1022.73 1022.69 1022.69 1022.73 1022.69 1022.69 1022.73 1022.77 1022.85 1023.01 1023.13
1013.61 1013.97 1014.29 1014.61 1014.89 1015.17 1015.45 1015.81 1016.17 1016.57 1016.85 1017.05 1017.05 1016.93 1016.85 1016.97 1017.13 1017.41 1017.69 1017.97 1018.13 1018.21 1018.33 1018.57 1018.89 1019.21 1019.57 1019.85 1020.13 1020.33 1020.49 1020.69 1020.85 1020.97 1021.09 1021.13 1021.21 1021.29 1021.37 1021.49 1021.57 1021.69 1021.77 1021.85 1022.01 1022.13 1022.29 1022.41 1022.53 1022.57 1022.57 1022.61 1022.61 1022.61 1022.61 1022.65 1022.65 1022.61 1022.57 1022.57 1022.57 1022.53 1022.45 1022.45 1022.49 1022.57 1022.73 1022.85 1023.01
1014.01 1014.33 1014.61 1014.85 1015.13 1015.37 1015.61 1015.93 1016.29 1016.57 1016.81 1017.01 1017.05 1017.01 1017.01 1017.09 1017.29 1017.57 1017.89 1018.13 1018.29 1018.29 1018.41 1018.69 1019.01 1019.37 1019.69 1020.01 1020.29 1020.41 1020.53 1020.61 1020.73 1020.85 1021.01 1021.09 1021.17 1021.29 1021.37 1021.45 1021.57 1021.65 1021.77 1021.93 1022.17 1022.33 1022.45 1022.53 1022.57 1022.53 1022.53 1022.49 1022.45 1022.49 1022.49 1022.49 1022.49 1022.53 1022.53 1022.53 1022.49 1022.41 1022.37 1022.33 1022.33 1022.41 1022.53 1022.73 1022.85
1014.13 1014.41 1014.65 1014.89 1015.13 1015.33 1015.61 1015.89 1016.13 1016.37 1016.57 1016.81 1016.85 1016.93 1017.01 1017.13 1017.37 1017.65 1017.93 1018.13 1018.29 1018.41 1018.57 1018.81 1019.13 1019.41 1019.73 1020.01 1020.25 1020.37 1020.45 1020.53 1020.65 1020.77 1020.89 1021.01 1021.13 1021.25 1021.33 1021.41 1021.53 1021.65 1021.81 1022.01 1022.21 1022.37 1022.45 1022.53 1022.57 1022.57 1022.53 1022.45 1022.41 1022.41 1022.41 1022.37 1022.37 1022.41 1022.45 1022.45 1022.45 1022.41 1022.33 1022.29 1022.29 1022.29 1022.41 1022.57 1022.65
1014.13 1014.41 1014.65 1014.85 1015.09 1015.29 1015.49 1015.69 1015.89 1016.13 1016.29 1016.57 1016.73 1016.85 1016.93 1017.09 1017.33 1017.61 1017.85 1018.01 1018.21 1018.41 1018.61 1018.85 1019.13 1019.45 1019.73 1019.93 1020.09 1020.21 1020.29 1020.41 1020.57 1020.73 1020.85 1021.01 1021.09 1021.17 1021.29 1021.41 1021.49 1021.61 1021.77 1022.01 1022.21 1022.33 1022.41 1022.45 1022.53 1022.57 1022.57 1022.49 1022.45 1022.41 1022.33 1022.25 1022.21 1022.25 1022.29 1022.29 1022.29 1022.29 1022.29 1022.21 1022.17 1022.21 1022.29 1022.41 1022.49
1014.01 1014.33 1014.57 1014.77 1015.01 1015.17 1015.37 1015.53 1015.69 1015.89 1016.09 1016.21 1016.41 1016.65 1016.85 1017.01 1017.29 1017.53 1017.69 1017.89 1018.13 1018.41 1018.65 1018.89 1019.13 1019.41 1019.61 1019.81 1019.97 1020.05 1020.21 1020.37 1020.53 1020.69 1020.85 1020.97 1021.05 1021.13 1021.25 1021.37 1021.45 1021.57 1021.73 1022.01 1022.13 1022.25 1022.29 1022.37 1022.41 1022.53 1022.57 1022.53 1022.45 1022.41 1022.37 1022.25 1022.13 1022.09 1022.05 1022.01 1022.01 1022.01 1022.01 1022.01 1022.05 1022.09 1022.13 1022.21 1022.29
1013.85 1014.13 1014.41 1014.61 1014.85 1015.01 1015.21 1015.41 1015.57 1015.73 1015.89 1016.09 1016.29 1016.53 1016.77 1017.01 1017.21 1017.41 1017.61 1017.81 1018.05 1018.33 1018.61 1018.89 1019.13 1019.33 1019.53 1019.69 1019.85 1020.01 1020.13 1020.29 1020.49 1020.65 1020.81 1020.93 1021.05 1021.13 1021.21 1021.33 1021.41 1021.53 1021.69 1021.93 1022.01 1022.09 1022.17 1022.29 1022.33 1022.41 1022.49 1022.53 1022.45 1022.41 1022.33 1022.21 1022.05 1021.89 1021.81 1021.77 1021.73 1021.73 1021.77 1021.81 1021.85 1021.89 1021.97 1022.01 1022.09
1013.65 1013.93 1014.13 1014.37 1014.57 1014.77 1015.01 1015.29 1015.49 1015.69 1015.89 1016.13 1016.29 1016.45 1016.69 1016.97 1017.17 1017.37 1017.57 1017.77 1017.97 1018.21 1018.49 1018.81 1019.01 1019.21 1019.41 1019.57 1019.77 1019.93 1020.13 1020.29 1020.45 1020.61 1020.73 1020.89 1021.01 1021.09 1021.17 1021.29 1021.37 1021.45 1021.61 1021.81 1021.85 1021.93 1022.01 1022.13 1022.21 1022.29 1022.41 1022.45 1022.45 1022.41 1022.29 1022.13 1021.97 1021.77 1021.61 1021.57 1021.49 1021.45 1021.49 1021.57 1021.61 1021.69 1021.73 1021.81 1021.85
1013.41 1013.69 1013.93 1014.13 1014.41 1014.65 1014.89 1015.17 1015.41 1015.69 1015.89 1016.09 1016.29 1016.45 1016.65 1016.89 1017.13 1017.33 1017.53 1017.73 1017.93 1018.17 1018.41 1018.69 1018.85 1019.09 1019.29 1019.49 1019.69 1019.89 1020.09 1020.29 1020.41 1020.57 1020.69 1020.81 1020.93 1021.01 1021.13 1021.21 1021.29 1021.29 1021.45 1021.65 1021.69 1021.73 1021.81 1021.89 1022.01 1022.13 1022.29 1022.41 1022.37 1022.33 1022.21 1022.05 1021.85 1021.69 1021.53 1021.41 1021.29 1021.29 1021.29 1021.29 1021.37 1021.41 1021.53 1021.57 1021.65
1013.37 1013.61 1013.85 1014.09 1014.33 1014.61 1014.89 1015.13 1015.41 1015.61 1015.85 1016.01 1016.21 1016.41 1016.61 1016.89 1017.13 1017.33 1017.57 1017.81 1018.01 1018.21 1018.41 1018.57 1018.77 1019.01 1019.21 1019.41 1019.61 1019.81 1020.01 1020.21 1020.37 1020.49 1020.61 1020.73 1020.85 1020.97 1021.01 1021.09 1021.09 1021.13 1021.25 1021.49 1021.57 1021.61 1021.69 1021.73 1021.85 1022.01 1022.13 1022.25 1022.29 1022.29 1022.13 1022.01 1021.85 1021.65 1021.49 1021.33 1021.21 1021.13 1021.09 1021.13 1021.13 1021.17 1021.29 1021.37 1021.41
1013.33 1013.57 1013.81 1014.09 1014.33 1014.57 1014.85 1015.05 1015.29 1015.57 1015.77 1015.97 1016.17 1016.41 1016.65 1016.93 1017.17 1017.41 1017.61 1017.85 1018.05 1018.21 1018.37 1018.49 1018.73 1018.89 1019.13 1019.29 1019.57 1019.77 1019.93 1020.13 1020.29 1020.41 1020.57 1020.69 1020.77 1020.85 1020.93 1020.93 1020.93 1020.89 1021.01 1021.29 1021.41 1021.45 1021.53 1021.61 1021.69 1021.81 1021.97 1022.13 1022.21 1022.13 1022.01 1021.89 1021.77 1021.61 1021.41 1021.25 1021.13 1021.09 1021.01 1021.01 1021.01 1021.01 1021.09 1021.13 1021.17
1013.33 1013.57 1013.77 1014.05 1014.29 1014.53 1014.77 1015.01 1015.25 1015.49 1015.73 1015.97 1016.21 1016.45 1016.73 1016.97 1017.17 1017.41 1017.61 1017.85 1018.01 1018.17 1018.29 1018.49 1018.69 1018.85 1019.09 1019.29 1019.49 1019.69 1019.89 1020.05 1020.21 1020.37 1020.49 1020.61 1020.69 1020.77 1020.81 1020.77 1020.73 1020.65 1020.73 1021.05 1021.17 1021.29 1021.41 1021.49 1021.57 1021.69 1021.85 1022.05 1022.09 1022.01 1021.89 1021.81 1021.65 1021.49 1021.33 1021.17 1021.05 1020.97 1020.89 1020.85 1020.85 1020.85 1020.89 1020.89 1020.97
1013.29 1013.53 1013.77 1014.01 1014.21 1014.41 1014.69 1014.97 1015.21 1015.53 1015.81 1016.01 1016.29 1016.53 1016.77 1016.97 1017.17 1017.37 1017.57 1017.77 1018.01 1018.13 1018.29 1018.49 1018.69 1018.85 1019.09 1019.29 1019.53 1019.69 1019.85 1020.05 1020.17 1020.33 1020.45 1020.57 1020.61 1020.61 1020.65 1020.61 1020.53 1020.53 1020.69 1020.89 1021.05 1021.17 1021.29 1021.37 1021.41 1021.57 1021.69 1021.89 1021.93 1021.85 1021.77 1021.65 1021.49 1021.33 1021.17 1021.09 1020.97 1020.85 1020.77 1020.73 1020.73 1020.69 1020.73 1020.73 1020.73
1013.25 1013.45 1013.69 1013.93 1014.17 1014.41 1014.69 1014.97 1015.25 1015.57 1015.85 1016.13 1016.37 1016.57 1016.81 1017.01 1017.13 1017.37 1017.57 1017.73 1017.97 1018.13 1018.29 1018.49 1018.73 1018.89 1019.13 1019.33 1019.53 1019.69 1019.85 1020.01 1020.13 1020.29 1020.41 1020.45 1020.49 1020.49 1020.49 1020.45 1020.37 1020.45 1020.69 1020.81 1020.93 1021.05 1021.13 1021.21 1021.29 1021.41 1021.61 1021.73 1021.73 1021.69 1021.57 1021.49 1021.37 1021.21 1021.05 1020.89 1020.81 1020.69 1020.61 1020.61 1020.57 1020.53 1020.57 1020.57 1020.57
1013.29 1013.49 1013.69 1013.93 1014.13 1014.41 1014.73 1015.05 1015.41 1015.69 1015.97 1016.21 1016.41 1016.61 1016.77 1016.93 1017.09 1017.29 1017.53 1017.73 1017.89 1018.09 1018.29 1018.49 1018.69 1018.85 1019.05 1019.29 1019.41 1019.57 1019.73 1019.89 1020.05 1020.17 1020.29 1020.29 1020.33 1020.33 1020.33 1020.29 1020.21 1020.29 1020.41 1020.65 1020.81 1020.93 1021.01 1021.09 1021.21 1021.37 1021.49 1021.57 1021.53 1021.41 1021.37 1021.29 1021.17 1021.05 1020.89 1020.73 1020.65 1020.57 1020.49 1020.49 1020.41 1020.41 1020.41 1020.41 1020.41
1013.33 1013.57 1013.77 1014.01 1014.21 1014.49 1014.85 1015.17 1015.53 1015.77 1016.01 1016.25 1016.41 1016.57 1016.69 1016.85 1017.01 1017.21 1017.45 1017.69 1017.85 1018.01 1018.21 1018.41 1018.61 1018.81 1019.01 1019.13 1019.33 1019.49 1019.65 1019.81 1019.93 1020.01 1020.13 1020.13 1020.13 1020.13 1020.13 1020.13 1020.05 1020.01 1020.13 1020.41 1020.65 1020.77 1020.89 1021.01 1021.13 1021.29 1021.33 1021.29 1021.25 1021.17 1021.13 1021.05 1020.97 1020.85 1020.73 1020.61 1020.49 1020.41 1020.33 1020.33 1020.29 1020.17 1020.13 1020.13 1020.21
1013.45 1013.69 1013.89 1014.13 1014.37 1014.65 1014.97 1015.29 1015.61 1015.85 1016.01 1016.21 1016.33 1016.45 1016.61 1016.73 1016.93 1017.17 1017.41 1017.65 1017.77 1017.93 1018.13 1018.33 1018.53 1018.73 1018.89 1019.09 1019.29 1019.41 1019.57 1019.69 1019.81 1019.89 1019.97 1020.01 1020.01 1020.01 1020.01 1020.01 1019.97 1019.85 1019.93 1020.29 1020.53 1020.69 1020.77 1020.85 1020.97 1021.13 1021.17 1021.05 1021.01 1020.93 1020.85 1020.85 1020.73 1020.65 1020.57 1020.41 1020.33 1020.21 1020.13 1020.13 1020.09 1020.01 1019.89 1019.89 1020.01
1013.65 1013.85 1014.13 1014.33 1014.57 1014.85 1015.09 1015.37 1015.61 1015.85 1016.01 1016.13 1016.29 1016.37 1016.53 1016.69 1016.89 1017.17 1017.45 1017.61 1017.73 1017.85 1018.01 1018.17 1018.37 1018.61 1018.85 1019.09 1019.25 1019.37 1019.49 1019.57 1019.69 1019.73 1019.81 1019.81 1019.85 1019.89 1019.93 1019.93 1019.93 1019.85 1019.85 1020.13 1020.41 1020.57 1020.65 1020.73 1020.81 1020.97 1021.05 1020.89 1020.81 1020.73 1020.69 1020.61 1020.57 1020.41 1020.33 1020.25 1020.13 1020.01 1019.93 1019.85 1019.81 1019.73 1019.65 1019.57 1019.65
1013.89 1014.13 1014.37 1014.57 1014.81 1015.01 1015.13 1015.37 1015.61 1015.85 1016.01 1016.13 1016.21 1016.29 1016.45 1016.69 1016.97 1017.25 1017.45 1017.57 1017.69 1017.81 1018.01 1018.17 1018.37 1018.65 1018.89 1019.09 1019.25 1019.37 1019.45 1019.53 1019.57 1019.61 1019.65 1019.69 1019.69 1019.73 1019.77 1019.81 1019.77 1019.73 1019.73 1019.85 1020.09 1020.29 1020.41 1020.57 1020.65 1020.81 1020.85 1020.77 1020.69 1020.57 1020.53 1020.45 1020.33 1020.21 1020.09 1020.01 1019.89 1019.81 1019.69 1019.53 1019.45 1019.41 1019.37 1019.29 1019.29
Wind_Speed
13 11 10 9 9 8 7 6 6 6 6 7 8 9 9 9 9 9 9 9 8 8 8 8 9 9 11 14 14 13 12 12 12 12 11 11 10 10 10 9 9 9 9 9 9 8 7 7 6 4 4 3 4 4 3 2 3 4 4 4 3 3 3 3 3 3 3 3 2
14 13 12 10 9 8 7 7 6 5 5 6 8 9 9 9 9 9 9 9 8 8 8 8 9 10 12 14 14 13 12 12 13 12 11 11 10 10 10 9 10 10 10 10 9 8 7 7 6 5 4 3 4 4 4 3 3 4 4 5 4 3 3 3 3 3 3 3 3
14 14 13 12 11 10 9 8 8 8 9 9 9 9 9 8 8 8 8 9 9 9 8 8 9 11 13 14 13 12 12 12 12 12 11 10 11 11 10 10 10 10 10 9 9 8 7 7 5 4 4 4 4 5 4 5 4 4 4 5 4 3 3 2 3 2 2 2 2
14 14 13 13 14 13 11 9 10 11 11 10 10 9 9 8 8 8 8 9 10 10 9 9 9 11 12 13 13 12 12 12 12 12 11 10 11 11 11 10 10 10 10 9 9 8 7 7 5 4 4 4 5 5 5 5 5 4 4 4 3 3 3 2 2 2 2 2 2
15 14 13 13 15 14 12 11 12 12 11 9 9 9 8 8 8 8 8 9 9 9 10 11 10 10 11 13 13 13 13 13 12 11 11 11 11 11 11 11 11 10 10 9 9 8 7 7 5 4 4 5 4 4 5 5 5 4 4 3 3 2 2 2 2 2 2 2 2
14 14 13 13 15 14 12 11 12 12 10 9 9 9 9 8 8 9 9 9 10 10 11 12 11 11 12 13 14 13 13 13 12 11 11 11 11 11 11 11 11 10 9 9 9 8 7 6 4 4 4 4 4 4 5 5 5 4 4 3 3 3 3 3 2 2 2 3 3
14 15 14 14 15 14 12 12 12 11 11 10 11 12 11 10 10 11 11 10 10 10 11 10 11 11 12 14 13 13 13 12 12 12 12 11 11 11 11 10 10 10 10 9 9 8 7 6 5 4 4 4 4 4 5 5 4 4 4 4 4 3 3 3 2 2 3 4 5
15 15 15 15 15 15 14 14 12 12 11 10 12 13 13 13 13 13 12 11 10 10 10 9 12 13 14 14 14 13 13 13 13 12 12 11 11 11 11 11 10 10 10 9 9 8 8 6 5 5 4 4 4 4 5 5 5 5 5 5 4 4 3 3 3 3 4 5 6
14 15 15 15 15 15 15 15 14 13 12 12 13 14 14 13 14 13 12 11 10 10 10 10 12 14 15 15 15 14 13 13 13 12 12 11 11 11 11 10 10 10 9 9 9 9 8 7 5 5 4 4 4 4 5 6 6 6 5 5 5 5 4 4 5 5 5 6 6
14 15 15 15 15 15 15 15 14 14 14 13 14 14 13 12 13 12 11 9 10 11 11 11 13 14 15 15 14 14 13 12 12 12 12 11 11 11 11 9 10 9 9 8 8 9 9 7 6 5 5 5 6 6 6 7 7 7 6 5 5 6 6 6 6 6 7 6 6
15 15 15 14 16 16 15 15 14 14 14 13 14 14 13 12 12 12 11 10 10 11 12 12 13 14 14 14 13 13 12 11 11 11 12 11 11 11 10 9 9 9 9 9 8 8 7 7 6 7 7 7 7 7 7 8 8 8 8 6 7 7 7 7 7 7 7 7 7
15 15 15 15 16 16 15 15 13 13 13 13 14 14 13 13 13 12 11 11 11 11 12 12 13 14 13 12 12 12 12 12 11 11 11 11 11 11 10 10 9 9 9 9 8 7 7 7 7 8 9 9 7 7 7 8 8 9 9 8 8 8 8 8 7 7 6 6 6
15 15 15 15 16 16 15 14 12 12 13 13 13 13 13 12 13 13 12 12 12 11 11 12 13 13 13 12 12 12 11 12 12 11 11 11 11 10 10 10 10 10 10 9 8 7 7 7 8 9 10 9 8 7 7 8 8 9 9 9 9 9 8 8 7 7 6 6 6
15 15 15 15 16 15 14 14 12 11 12 13 13 12 12 12 13 12 12 12 12 12 11 12 12 12 12 13 12 12 12 12 12 12 11 11 10 10 10 10 10 10 9 8 8 8 8 9 9 10 10 9 9 8 8 8 8 9 9 9 9 9 8 8 8 7 7 7 7
15 15 15 15 15 14 13 13 11 11 12 13 12 12 12 11 12 12 12 12 13 12 11 12 11 12 12 13 13 13 13 12 12 12 12 11 11 11 10 10 10 10 9 8 9 9 10 10 10 10 9 9 9 9 9 9 9 9 9 9 9 9 8 8 8 8 8 8 8
15 15 14 14 14 14 13 12 10 10 11 12 12 12 11 11 11 11 12 13 12 11 11 12 12 12 12 12 12 13 13 12 12 12 12 11 11 11 11 10 10 10 10 10 10 10 10 10 9 9 9 9 9 9 9 9 9 9 9 9 9 9 9 9 9 9 9 9 10
14 14 14 14 14 14 12 11 9 9 10 11 12 12 11 11 11 11 12 13 12 11 12 13 12 11 11 11 11 11 12 12 12 12 11 11 11 11 10 10 9 10 10 11 11 11 11 10 9 9 9 9 9 9 9 9 9 9 9 10 10 10 10 10 10 10 10 11 11
14 13 13 13 14 13 12 11 10 10 10 11 11 11 11 11 11 11 12 13 12 12 13 13 12 11 11 11 10 10 10 11 11 11 11 10 10 10 10 9 9 10 11 11 11 11 11 11 10 9 9 9 9 9 9 9 9 9 10 10 10 10 10 10 10 10 10 11 11
13 13 13 13 13 13 12 11 10 10 10 10 9 9 10 12 12 12 12 13 12 13 13 13 12 11 11 12 12 11 10 10 11 11 10 10 10 10 10 10 10 11 12 11 11 11 10 10 9 9 9 9 9 9 9 10 10 10 10 10 11 11 11 11 11 11 11 11 10
13 13 13 12 12 12 12 11 10 9 8 7 8 9 11 12 13 13 13 13 12 12 13 14 13 13 13 14 13 12 10 9 10 11 10 9 9 9 10 11 11 11 11 11 10 10 9 9 9 9 9 9 9 9 10 10 10 10 10 10 10 11 11 11 11 11 11 11 10
12 12 12 12 12 12 11 10 9 8 7 7 9 10 11 12 12 13 13 13 12 12 13 14 15 14 14 14 14 13 11 9 10 10 10 9 9 10 10 10 11 10 10 10 9 9 9 8 8 8 9 9 9 9 10 10 10 11 11 10 10 11 11 11 12 12 11 11 10
11 11 11 11 10 10 10 9 8 7 7 7 8 10 10 11 11 11 12 11 12 13 13 14 14 14 14 13 13 12 11 9 9 9 9 9 9 9 9 9 10 10 9 9 9 8 8 8 8 8 8 8 9 10 10 10 11 11 11 11 11 12 12 12 12 12 11 11 10
9 9 9 9 9 9 9 8 6 5 5 5 7 8 8 9 10 10 10 11 11 12 13 12 12 12 13 13 13 12 11 10 9 9 9 9 9 9 9 8 9 9 9 8 7 7 7 7 8 8 9 8 9 10 11 11 11 11 11 12 12 12 12 12 12 11 11 10 10
10 10 9 9 10 10 10 9 7 5 5 6 8 9 8 9 9 10 10 11 12 12 12 10 10 10 12 13 13 12 12 11 10 10 9 9 9 9 8 8 8 8 7 5 4 4 4 5 6 7 8 9 9 10 10 11 11 11 11 12 12 12 12 12 12 11 11 11 10
10 10 9 9 9 9 9 9 8 8 8 8 10 9 9 9 9 10 11 12 12 12 12 11 11 10 10 11 12 12 11 11 10 10 10 9 9 8 8 7 7 6 5 3 2 2 3 3 5 6 8 8 9 9 9 10 11 11 11 11 11 12 12 12 12 11 11 11 11
10 10 9 8 8 8 9 10 10 10 10 10 10 10 10 10 10 11 12 13 13 12 12 12 12 11 10 10 11 11 10 10 9 10 9 9 9 8 8 7 6 5 3 3 3 4 4 4 5 6 7 8 8 8 9 9 10 11 11 11 11 11 11 11 11 11 11 11 11
10 10 10 9 9 10 11 11 12 12 12 12 12 12 12 12 12 13 13 14 13 13 12 12 11 10 9 10 11 11 10 9 9 9 9 9 9 9 8 7 6 4 3 4 5 6 6 6 6 6 6 8 8 9 9 9 9 10 11 11 11 12 12 12 12 12 12 11 12
11 10 10 10 11 11 12 12 13 13 14 15 14 14 14 13 14 14 14 14 14 13 11 10 10 9 8 9 10 11 10 9 9 8 8 8 8 8 8 7 6 5 4 5 7 8 8 8 8 7 7 7 8 9 10 10 10 10 10 11 11 12 12 12 12 12 12 12 12
12 11 11 11 12 12 12 13 13 14 14 15 15 14 14 14 14 15 15 14 14 13 11 9 8 7 7 8 9 9 10 9 8 8 8 8 8 8 8 8 8 6 6 7 9 9 10 9 9 9 9 8 8 8 8 9 10 10 10 9 10 11 11 11 11 11 11 12 12
12 12 12 12 12 12 12 13 13 13 13 12 13 14 14 14 14 15 15 15 14 13 11 9 8 8 9 9 9 9 9 9 8 8 8 8 8 8 8 8 8 7 7 9 11 11 12 11 11 11 10 10 9 9 9 9 10 10 10 9 10 11 12 12 12 12 12 11 12
12 11 11 11 11 12 12 12 12 12 12 11 12 13 14 14 15 14 14 14 13 12 11 10 11 11 11 10 9 9 9 8 8 8 8 8 8 8 8 9 10 9 8 9 12 13 13 13 13 12 12 11 10 9 10 10 11 11 10 10 11 12 12 12 12 13 13 13 13
11 11 10 11 11 12 12 12 12 12 12 13 13 14 14 14 14 13 12 12 12 12 12 12 12 11 11 10 9 9 9 9 8 8 8 8 8 8 9 9 10 10 9 10 12 13 14 14 13 13 12 12 10 10 11 12 12 12 12 13 14 14 13 12 11 12 14 14 14
10 10 10 10 11 11 12 12 12 12 13 13 13 14 14 13 13 12 12 11 11 12 12 12 12 11 11 10 10 9 9 9 8 8 7 7 7 8 9 9 10 10 9 10 12 13 14 14 13 13 13 12 10 11 12 12 12 11 12 13 13 14 14 14 13 13 14 14 14
10 10 10 10 11 11 11 12 12 12 12 12 13 13 13 13 12 12 12 11 11 11 11 10 10 10 10 9 9 9 8 7 7 7 7 7 8 9 10 10 9 9 8 9 12 13 14 14 14 13 13 12 10 10 12 13 12 12 13 13 14 14 14 15 14 14 14 15 14
9 10 10 10 10 10 11 11 11 12 12 12 12 12 12 12 13 12 12 11 10 10 9 9 9 9 8 8 8 8 8 7 6 6 7 7 8 9 10 11 11 8 6 9 12 14 14 14 14 14 13 11 9 9 11 13 13 14 15 15 15 15 15 15 15 14 14 15 15
9 9 9 9 10 10 11 11 12 12 12 12 12 12 12 12 12 12 11 11 10 9 9 9 8 8 8 8 8 7 7 7 6 6 7 8 9 10 11 12 12 9 5 9 12 13 14 14 14 13 12 10 8 9 10 11 12 13 15 16 16 16 16 15 15 14 14 14 15
8 8 8 9 10 10 11 11 12 12 12 12 12 12 12 12 12 11 11 10 10 9 9 9 9 9 9 8 8 7 7 6 7 7 8 8 9 10 11 12 12 10 7 9 12 14 14 14 14 13 12 9 9 9 10 10 10 12 13 15 15 15 15 14 14 14 14 14 15
7 8 8 9 10 10 11 11 11 12 12 12 12 12 12 12 11 11 10 9 9 9 9 9 9 9 8 8 7 7 6 6 7 7 8 9 10 10 11 12 12 11 8 9 12 14 14 14 14 13 12 10 10 9 9 9 10 11 12 12 13 14 14 12 12 12 13 15 15
7 8 8 9 10 10 11 11 11 11 12 12 12 12 12 11 10 9 9 8 9 9 9 9 9 9 8 7 6 5 6 6 7 7 8 9 10 10 10 11 12 11 9 7 11 13 14 14 14 14 13 10 10 9 9 9 10 11 12 12 12 12 13 12 11 11 12 14 14
7 8 8 9 10 10 11 11 11 11 11 11 12 12 11 10 9 9 8 8 8 8 8 8 8 7 6 5 4 5 5 6 7 8 8 9 9 9 10 11 12 12 11 7 10 13 14 14 15 15 14 11 10 9 8 9 10 11 12 11 11 11 11 12 11 11 11 13 13
8 8 9 9 9 9 10 11 11 11 11 11 11 10 9 9 8 8 8 7 8 7 6 6 6 6 5 4 3 4 5 6 7 8 8 9 9 9 9 11 12 12 12 9 10 12 15 15 15 16 15 11 10 9 8 9 10 11 12 12 12 11 11 11 11 11 11 12 12
Wind_Direction
179 174 171 172 176 179 180 177 168 163 167 177 181 180 177 177 174 172 172 172 177 177 176 176 177 176 174 174 174 174 173 170 169 168 168 169 168 166 164 160 160 162 165 169 172 177 182 183 181 180 181 181 179 173 169 175 195 198 199 201 194 189 188 195 200 209 220 235 245
179 174 171 170 174 176 175 172 165 163 173 190 190 184 178 177 174 173 173 173 178 177 176 175 176 175 174 173 173 173 172 169 167 167 168 170 168 166 164 163 165 168 171 174 176 180 183 183 181 179 179 181 183 178 172 173 200 208 207 204 198 194 192 200 207 213 223 235 246
178 174 172 172 175 175 174 172 171 176 184 194 193 185 177 174 173 174 174 173 177 177 174 174 176 174 172 171 171 171 170 168 167 167 168 170 169 168 167 168 171 172 174 177 180 183 184 182 180 180 182 186 189 185 179 177 196 207 211 207 203 198 197 204 212 217 222 233 251
179 176 174 175 177 176 175 176 177 181 186 191 190 182 173 171 172 174 174 173 177 177 175 175 174 172 170 170 170 170 169 167 166 168 170 171 171 171 172 174 174 175 175 178 184 186 185 182 180 184 193 198 197 193 186 180 193 202 209 210 209 205 202 206 214 220 228 240 259
180 178 176 176 178 178 177 180 180 182 184 186 185 177 170 169 171 172 173 173 177 177 176 175 171 169 168 168 169 169 168 167 167 169 172 173 174 174 175 177 177 176 176 180 185 188 188 185 185 192 200 205 204 200 193 185 192 199 205 209 212 213 213 216 219 219 224 234 248
181 179 178 176 178 178 179 183 181 180 182 185 182 176 170 170 172 174 175 176 176 176 174 174 169 166 166 167 168 168 168 168 169 171 174 175 175 176 177 180 179 178 178 180 184 187 189 191 194 199 204 207 209 207 201 192 196 201 205 210 210 210 213 219 220 220 223 232 241
182 181 179 176 178 179 180 183 180 180 181 185 182 177 174 174 174 175 176 175 173 172 172 172 168 165 165 167 168 168 169 169 171 174 176 176 176 177 179 181 181 180 181 181 183 185 189 198 203 203 203 204 209 209 205 200 204 210 215 218 214 209 208 216 222 231 241 247 251
184 183 181 177 178 179 181 183 180 180 182 186 181 178 176 176 174 174 174 173 170 169 169 169 167 165 165 167 168 169 170 170 172 175 177 176 177 178 180 182 183 184 184 183 185 186 189 200 208 207 203 202 208 208 205 202 209 218 227 232 227 215 203 204 214 230 242 248 249
186 185 182 178 179 181 182 184 182 182 183 185 180 177 175 176 174 173 172 171 168 166 167 168 166 166 167 169 169 170 171 171 172 174 176 176 177 179 180 182 184 186 185 184 188 190 193 202 211 212 208 204 208 206 204 202 210 220 231 241 240 228 212 202 209 222 234 241 241
188 186 183 180 181 183 185 187 184 183 183 182 178 175 174 175 173 171 170 168 164 164 166 167 166 167 169 171 170 171 171 172 172 173 175 176 178 179 180 181 185 186 187 185 192 196 199 205 213 216 215 213 214 211 205 203 210 218 227 239 242 236 227 214 216 222 228 233 233
189 187 185 183 183 185 187 188 184 182 180 179 175 173 172 173 171 169 166 163 161 164 166 166 166 168 169 171 171 171 171 170 171 173 175 176 178 179 180 181 185 188 189 188 194 201 205 210 217 220 222 223 222 217 211 208 213 219 225 233 239 239 235 226 226 227 230 232 232
190 189 187 186 185 187 188 186 181 179 178 177 174 172 171 171 169 166 163 159 160 163 166 166 167 169 171 172 171 171 170 169 170 172 175 175 177 178 179 181 186 191 193 193 197 203 211 216 222 225 226 226 226 223 219 216 218 222 227 231 236 239 238 235 233 233 235 236 238
191 191 190 188 186 186 185 182 178 176 176 176 174 171 168 168 167 164 161 158 160 163 166 167 169 171 173 173 171 170 169 168 169 172 174 175 176 177 179 182 188 194 198 198 200 205 215 223 228 231 232 229 228 226 225 223 225 227 230 234 236 238 239 241 241 242 243 245 247
193 193 191 187 185 183 181 177 175 174 175 176 172 167 164 165 164 162 160 160 163 165 167 168 172 175 175 174 171 169 167 167 169 171 173 173 174 177 180 185 191 196 201 202 204 211 219 227 232 235 237 236 234 231 228 226 229 233 236 238 239 239 240 243 244 246 248 251 252
193 193 190 184 182 180 177 174 173 173 173 174 168 163 160 162 162 162 162 163 166 168 169 171 175 176 176 173 169 166 165 166 168 171 173 173 175 178 183 188 193 198 202 205 209 215 223 229 234 238 241 242 240 237 232 229 230 234 238 242 243 243 242 242 243 244 245 247 248
193 191 187 179 179 177 175 171 170 170 170 170 164 160 159 160 162 163 164 166 169 170 172 174 176 175 173 169 165 163 163 165 169 172 174 174 176 180 185 192 196 201 206 211 213 217 222 228 235 241 245 247 248 246 242 236 234 234 236 240 243 244 244 243 242 242 242 243 245
190 187 181 175 177 175 172 167 165 165 166 165 160 159 159 160 162 165 168 170 172 173 174 175 174 170 166 162 160 161 164 167 170 173 175 175 176 180 186 194 200 208 215 220 220 220 221 222 229 236 243 249 252 253 252 249 243 239 237 238 241 243 243 243 244 244 245 245 247
185 181 176 173 174 171 166 162 159 159 160 160 159 160 162 162 164 167 171 174 174 175 175 173 169 163 159 158 161 164 167 169 171 173 174 174 176 180 188 196 206 215 222 227 227 225 224 223 225 230 236 243 248 253 256 257 253 247 241 239 240 241 243 245 246 247 248 249 251
179 175 171 170 168 164 160 157 155 155 157 158 163 169 170 167 168 170 172 175 176 176 173 168 162 159 160 162 165 167 168 168 169 171 172 174 177 184 192 202 212 220 225 229 229 229 228 227 229 231 234 238 242 246 250 254 254 251 247 242 241 241 243 245 247 248 249 250 251
173 170 167 165 162 160 158 155 152 153 158 164 180 184 180 173 171 171 173 175 174 172 168 163 160 162 165 167 167 166 165 165 168 170 172 176 183 192 202 211 217 222 225 228 229 230 232 233 234 236 237 238 241 243 246 250 251 250 248 245 243 242 243 245 247 248 248 249 249
169 167 163 161 162 160 157 153 149 151 160 174 187 189 185 176 172 172 174 173 170 168 166 163 164 166 168 168 164 163 161 162 168 171 176 183 193 202 210 217 221 223 225 226 228 230 234 239 241 242 241 240 241 243 246 248 249 248 246 244 242 242 243 245 246 246 246 245 244
164 160 156 154 154 148 141 134 132 138 153 175 192 194 189 178 173 172 172 170 166 166 167 167 168 167 166 163 161 159 159 161 169 175 182 192 202 209 214 219 223 225 226 226 228 231 236 242 246 247 245 242 241 242 244 247 248 247 245 243 242 242 243 244 244 243 242 240 241
142 133 126 122 119 116 114 113 116 126 149 192 217 215 202 182 174 171 169 166 166 167 169 169 167 164 161 159 159 159 160 164 172 181 191 202 208 212 214 217 222 226 228 230 233 236 240 244 247 248 246 243 243 244 245 247 248 248 247 245 244 244 245 244 243 241 239 236 237
111 108 106 105 107 108 110 113 123 141 174 215 231 227 210 186 177 172 169 167 168 170 170 165 159 154 154 157 160 162 165 169 177 187 198 206 209 211 212 214 220 224 228 232 235 239 242 246 247 246 245 244 245 246 248 247 247 248 248 249 250 250 250 248 245 240 237 234 235
115 116 118 119 119 120 124 134 149 166 186 209 219 215 201 184 178 175 173 172 172 171 167 157 150 148 150 157 164 168 172 177 184 192 200 206 207 209 211 214 217 221 223 221 208 200 207 225 237 242 245 247 249 251 251 250 248 247 248 250 253 255 256 255 249 243 238 236 234
140 140 142 145 145 146 152 162 169 176 186 200 205 199 189 184 180 177 175 173 171 167 161 153 150 149 153 162 169 174 179 184 190 196 201 203 204 206 210 215 216 216 215 205 181 179 187 199 216 232 243 252 256 258 257 253 248 245 246 247 251 254 256 257 253 248 242 240 237
156 156 160 163 167 171 174 176 176 178 181 188 189 187 186 186 180 177 175 172 167 162 157 152 151 151 157 167 175 180 184 188 192 196 199 202 204 207 210 217 218 217 209 190 178 181 189 196 205 217 233 247 256 261 263 261 253 247 244 244 247 249 251 252 252 250 246 243 241
163 166 169 170 176 181 183 182 180 179 179 181 181 183 185 185 179 177 175 171 164 159 155 152 152 154 161 171 179 184 187 189 190 193 197 201 205 209 212 219 222 217 201 179 179 184 191 197 203 210 220 234 248 256 261 263 258 252 246 244 244 245 246 247 247 247 246 244 242
169 174 179 181 182 183 184 182 181 180 179 179 178 180 182 181 178 176 174 167 161 157 154 152 152 157 166 174 181 185 187 188 187 189 193 199 205 211 216 224 231 227 206 178 181 187 194 200 205 209 214 222 236 247 255 258 258 255 251 247 245 245 245 245 244 244 244 244 243
175 180 185 186 182 180 179 177 176 176 177 179 179 180 180 178 177 175 172 165 160 157 155 153 156 163 170 176 179 183 186 186 185 187 191 197 204 213 221 228 237 234 215 186 186 190 196 200 205 209 212 217 229 241 250 255 257 258 256 254 251 249 247 246 245 244 243 243 243
177 180 182 181 176 174 173 172 171 173 176 179 179 179 178 176 175 173 168 161 159 157 156 156 160 166 172 177 179 181 184 184 185 187 192 198 206 216 226 234 242 241 224 194 192 193 197 200 204 207 210 213 222 234 245 252 256 259 260 259 257 254 251 249 247 245 244 244 245
173 175 175 174 171 171 172 172 172 174 177 179 178 177 176 174 172 167 162 157 157 158 159 160 163 168 173 177 179 181 183 183 185 188 194 202 213 224 234 241 247 246 233 202 196 196 198 199 202 205 207 210 218 231 241 248 254 258 261 262 261 259 257 253 249 247 245 245 245
170 172 172 173 173 174 175 175 175 175 176 176 175 174 172 168 165 161 158 157 160 162 163 164 166 169 174 177 179 181 183 184 186 190 198 208 222 233 242 247 251 249 237 206 197 197 199 199 201 203 205 206 216 228 238 245 250 255 258 260 261 260 259 257 254 251 248 247 247
170 173 174 175 176 177 177 176 174 172 171 171 170 168 166 163 160 159 159 161 163 164 164 164 167 170 174 176 178 180 181 184 189 195 205 216 230 240 246 250 253 253 238 201 194 195 197 198 200 201 202 203 213 227 237 242 247 251 254 257 259 259 259 258 256 253 251 249 248
174 175 176 177 178 176 174 171 167 164 163 165 164 163 163 162 161 161 162 162 163 163 162 163 165 168 171 173 176 178 180 183 192 203 215 228 239 246 251 254 257 257 237 189 190 193 196 198 199 198 198 198 212 226 236 242 246 250 253 255 257 258 258 258 257 255 254 252 251
176 176 176 176 174 171 167 163 159 158 159 162 162 163 164 165 164 163 162 161 160 160 161 162 164 167 170 172 175 179 183 188 201 214 227 237 245 251 254 257 260 257 227 182 189 193 196 197 197 195 193 196 211 225 234 240 246 250 253 255 257 258 259 259 258 257 255 253 252
174 173 172 172 168 163 158 154 154 156 159 162 164 166 167 168 165 162 160 158 160 161 162 163 167 169 172 174 178 184 191 200 213 224 235 242 248 252 256 259 263 258 229 184 189 193 196 198 195 192 191 199 214 225 232 239 245 250 253 256 258 259 260 260 260 258 256 254 252
166 166 165 164 159 154 151 149 154 158 162 166 167 169 169 169 164 159 157 159 162 163 164 166 170 173 176 178 182 190 201 214 225 234 242 248 251 254 258 261 264 264 248 196 189 191 196 198 194 191 192 204 216 225 232 239 244 249 252 255 257 258 259 259 259 258 257 255 252
155 155 154 153 149 148 148 150 156 161 165 169 171 171 170 167 160 156 155 161 166 168 168 171 175 176 177 180 188 200 214 227 235 241 246 251 253 255 258 262 266 269 262 215 191 191 196 199 195 193 195 207 218 227 234 241 246 250 252 255 257 258 258 257 257 257 256 255 251
141 141 142 143 144 147 151 155 159 164 168 171 172 170 168 162 154 151 155 164 170 171 172 174 174 173 172 177 194 213 228 239 244 247 250 254 255 255 257 261 264 268 265 234 196 192 196 200 197 196 198 211 221 229 237 243 248 251 253 254 256 257 257 256 254 254 255 255 251
128 132 137 140 145 151 156 160 162 165 169 172 170 167 161 153 148 150 156 166 170 170 168 167 165 164 166 177 204 227 241 250 254 257 259 261 262 260 257 258 261 264 263 249 209 196 196 201 199 198 200 212 222 231 238 244 250 252 254 255 256 257 258 258 256 254 254 254 254